Regional Weather Roundup
Issued by NWS Memphis, TN

Home | Current Version | Previous Version | Text Only | Print | Product List | Glossary On
Versions: 1 2 3 4 5 6 7 8 9 10 11 12 13 14 15 16 17 18 19 20 21 22 23 24 25 26 27 28 29 30 31 32 33 34 35 36 37 38 39 40 41 42 43 44 45 46 47 48 49 50
000
ASUS44 KMEG 250310
RWRMEG
MEMPHIS CWA HOURLY WEATHER ROUNDUP
NATIONAL WEATHER SERVICE MEMPHIS TN
1000 PM CDT THU JUL 24 2014

...WEST TENNESSEE...

CITY           SKY/WX    TMP DP  RH WIND       PRES   REMARKS
MEMPHIS INTL   CLEAR     72  61  68 N6        30.04R
NWS MEMPHIS      N/A     68 N/A N/A MISG        N/A
JACKSON        CLEAR     66  62  87 CALM      30.04R
LEXINGTON      CLEAR     66  63  88 CALM      30.02S
SAVANNAH       CLEAR     66  66 100 CALM      30.03R
DYERSBURG      CLEAR     70  55  60 N5        30.06R
UNION CITY     CLEAR     66  61  82 NE5       30.05R
PARIS          CLEAR     63  58  83 N3        30.06R


...EASTERN ARKANSAS...

CITY           SKY/WX    TMP DP  RH WIND       PRES   REMARKS
JONESBORO      CLEAR     67  59  75 NE5       30.05R
WEST MEMPHIS   CLEAR     69  64  84 NW3       30.04R
BATESVILLE     CLEAR     68  63  83 CALM      30.05R
NEWPORT        CLEAR     70  65  84 E6        30.06R
WALNUT RIDGE   CLEAR     70  63  78 E3        30.05R
BLYTHEVILLE    CLEAR     67  65  93 N6        30.05R
SEARCY         CLEAR     70  64  81 CALM      30.05R
STUTTGART      CLEAR     72  63  73 NE6       30.04R
PINE BLUFF     CLEAR     71  67  87 E5        30.03R
MONTICELLO     CLEAR     74  69  85 NE3       30.02R


...NORTH MISSISSIPPI...

CITY           SKY/WX    TMP DP  RH WIND       PRES   REMARKS
TUPELO         CLEAR     70  61  73 N3        30.02R
OLIVE BRANCH   CLEAR     70  66  88 CALM      30.04R
CLARKSDALE     CLEAR     66  64  94 N5        30.04R
CORINTH        CLEAR     66  63  88 CALM      30.02R
GRENADA        CLEAR     64  63  94 CALM      30.03R
GREENWOOD      CLEAR     70  66  87 N5        30.01R
COLUMBUS       CLEAR     73  62  68 N2        30.01R
STARKVILLE     FAIR      73  66  78 CALM      30.01R
GOLDEN TRIANGL CLEAR     75  66  73 N6        30.01R


...SOUTHEAST MISSOURI...

CITY           SKY/WX    TMP DP  RH WIND       PRES   REMARKS
WEST PLAINS    CLEAR     65  60  84 E3        30.09R
POPLAR BLUFF   CLEAR     66  62  87 CALM      30.05R
CAPE GIRARDEAU CLEAR     65  63  93 SE3       30.05S


...NORTHWEST ALABAMA...

CITY           SKY/WX    TMP DP  RH WIND       PRES   REMARKS
MUSCLE SHOALS  CLEAR     73  64  73 N3        30.02R


...MIDDLE TENNESSEE...

CITY           SKY/WX    TMP DP  RH WIND       PRES   REMARKS
NASHVILLE      PTCLDY    73  59  61 N6        30.03R
CLARKSVILLE    CLEAR     66  55  67 N6        30.04R
DICKSON        CLEAR     68  57  68 NE5       30.04R
COLUMBIA       CLEAR     70  64  83 CALM      30.02R
LEWISBURG      CLEAR     68  63  84 CALM      30.02R


...WESTERN KENTUCKY...

CITY           SKY/WX    TMP DP  RH WIND       PRES   REMARKS
PADUCAH        CLEAR     66  60  81 CALM      30.06R
FORT CAMPBELL  CLEAR     66  57  71 N6        30.05R


...CENTRAL ARKANSAS...

CITY           SKY/WX    TMP DP  RH WIND       PRES   REMARKS
LITTLE ROCK    CLEAR     74  66  76 E6        30.03R


SKY/WX REPORTED AS FAIR MEANS FEW OR NO CLOUDS BELOW
12 THOUSAND FEET.



USA.gov is the U.S. government's official web portal to all federal, state and local government web resources and services.